STARLINK-1031 (44736 NORAD) Tracking and Keplerian Element Data

This shows tracking and keplerian element data for the satellite.

Feedback or suggestion? Click here.




ElementValue
Catalog44736
NameSTARLINK-1031
Epoch Orbit2125
Epoch Day88.25001157
Epoch Year2020
RAAN237.4781
Inclination53.0027
Eccentricity0.0001486
Argument of Perigee83.3523
Mean Anonmoly166.8887
Mean Motion15.03927216
Decay Rate0.00183618
L11 44736U 19074Z 20088.25001157 .00183618 00000-0 12852-1 0 9990
L22 44736 53.0027 237.4781 0001486 83.3523 166.8887 15.03927216 21258

Live tracking and technical data element details for STARLINK-1031 (NORAD 44736). STARLINK-1031 can be tracked NOW for your location showing map with azimuth and elevation plus other details from your city location.

Track the satellite on the map from your city or location and see movement details for azimuth, elevation, latitude, longitude, range, height, and movement on the map or in text.







IsCatalogInMostPopularTable: catalog: 44736, numindb: 39
Update: records affected: 1



GetName: 44736 STARLINK-1031

Hit Count: updated at: Sat, 28 Mar 2020 21:47:21 GMT